sat.trackr.live / text

‹ back to catalog

MMS 1

NORAD 40482 · 2015-011A

PAYLOAD ACTIVE UNKNOWN

§ Identity

Operator
Country
US
Launch date
2015-03-13
Launch site
AFETR
Launch vehicle
Mass (kg)
RCS (m²)
3.29

Purposes: science

External: N2YO · Heavens-Above · Gunter

§ Orbital elements

Epoch: 2026-09-13T04:00:01.998720Z

Period
5,082.96 min
Inclination
72.9582°
Eccentricity
0.8260719
Mean motion
0.28329937 rev/d
Perigee alt
10,654.2 km
Apogee alt
172,444.6 km
Semi-major
97,927.5 km
B*
0.0000e+0
RAAN
347.7812°
Arg perigee
169.3398°
Mean anomaly
273.2235°
Rev number
141

§ Raw data

MMS 11 40482U 15011A   26256.16668980 -.00001790  00000+0  00000+0 0  99972 40482  72.9582 347.7812 8260719 169.3398 273.2235  0.28329937  1410

JSON: /api/v1/satellites/40482 · /tle

For live sub-satellite position, see the globe view (requires WebGL).

§ Visibility from observer

Set your observer location to see the next 7 days of passes ≥ 10°. The values pass through the URL so the page stays shareable.

No JS? Fill the form by hand. The geolocation button needs JavaScript.